Jordan, MT

6:47 AM MDT on April 23, 2018 (GMT -0600)
Jordan

Weather History for KJDN - March, 2014

Change the Weather History Date:

Wednesday, March 26, 2014

  Actual Average Record
Temperature  
Mean Temperature 35 °F 37 °F  
Max Temperature 46 °F 50 °F 76 °F (1956)
Min Temperature 24 °F 25 °F -34 °F (1913)
Degree Days  
Heating Degree Days 30 28  
Month to date heating degree days 937 851  
Since 1 July heating degree days 7250 6969  
Cooling Degree Days 0 0  
Month to date cooling degree days 0 0  
Year to date cooling degree days 0 0  
Moisture  
Dew Point 23 °F    
Average Humidity 69    
Maximum Humidity 88    
Minimum Humidity 49    
Precipitation  
Precipitation 0.00 in 0.02 in 0.33 in (1958)
Month to date precipitation 0.36 0.43  
Year to date precipitation 0.97 0.91  
Snow  
Snow 0.00 in - - ()
Month to date snowfall 0.0  
Since 1 July snowfall 0.0  
Snow Depth 0.00 in    
Sea Level Pressure  
Sea Level Pressure 29.60 in    
Wind  
Wind Speed 8 mph (North)    
Max Wind Speed 17 mph    
Max Gust Speed 21 mph    
T = Trace of Precipitation, MM = Missing Value Source: NWS Daily Summary

Daily Weather History Graph

Daily Weather History Graph

Search for Another Location

Airport or City:

Astronomy

Mar. 26, 2014 Rise Set
Actual Time 6:58 AM MDT 7:29 PM MDT
Civil Twilight 6:27 AM MDT 7:59 PM MDT
Nautical Twilight 5:51 AM MDT 8:36 PM MDT
Astronomical Twilight 5:13 AM MDT 9:14 PM MDT
Moon 4:26 AM MDT (3/26) 2:55 PM MDT (3/26)
Length of Visible Light 13h 32m
Length of Day
12h 30m
Waning Crescent, 21% of the Moon is Illuminated
Mar 26
Waning Crescent
Mar 30
New
Apr 7
First Quarter
Apr 15
Full
Apr 22
Last Quarter

Hourly Weather History & Observations

Time (MDT) Temp. Windchill Dew Point Humidity Pressure Visibility Wind Dir Wind Speed Gust Speed Precip Events Conditions
12:48 AM 28.9 °F 23.9 °F 23.0 °F 78% 29.60 in - East 4.6 mph - N/A   Unknown
1:48 AM 28.9 °F 20.4 °F 23.0 °F 78% 29.59 in - NE 9.2 mph - N/A   Unknown
2:48 AM 28.0 °F 20.0 °F 23.0 °F 81% 29.53 in - East 8.1 mph - N/A   Unknown
3:48 AM 26.1 °F 19.4 °F 21.9 °F 84% 29.56 in - North 5.8 mph - N/A   Unknown
4:48 AM 27.0 °F 18.0 °F 23.0 °F 85% 29.55 in - North 9.2 mph - N/A   Unknown
5:48 AM 26.1 °F 17.6 °F 23.0 °F 88% 29.56 in - North 8.1 mph - N/A   Unknown
6:48 AM 25.0 °F 20.7 °F 21.0 °F 85% 29.55 in - Variable 3.5 mph - N/A   Unknown
7:48 AM 26.1 °F 17.6 °F 21.9 °F 84% 29.57 in - NNW 8.1 mph - N/A   Unknown
8:48 AM 28.0 °F 21.7 °F 23.0 °F 81% 29.58 in - West 5.8 mph - N/A   Unknown
9:48 AM 30.0 °F 24.1 °F 23.0 °F 75% 29.59 in - WNW 5.8 mph - N/A   Unknown
10:48 AM 34.0 °F 27.2 °F 25.0 °F 70% 29.59 in - NW 8.1 mph - N/A   Unknown
11:48 AM 37.0 °F 31.0 °F 25.0 °F 62% 29.59 in - NNW 8.1 mph - N/A   Unknown
12:48 PM 39.9 °F 33.9 °F 25.0 °F 55% 29.57 in - NNW 9.2 mph - N/A   Unknown
1:48 PM 42.1 °F 34.9 °F 25.0 °F 51% 29.56 in - NNW 13.8 mph - N/A   Unknown
2:48 PM 43.0 °F 36.0 °F 26.1 °F 51% 29.57 in - NW 13.8 mph - N/A   Unknown
3:48 PM 45.0 °F 38.5 °F 27.0 °F 49% 29.57 in - NNW 13.8 mph 18.4 mph N/A   Unknown
4:48 PM 45.0 °F 39.3 °F 26.1 °F 48% 29.58 in - North 11.5 mph - N/A   Unknown
5:48 PM 43.0 °F 36.8 °F 25.0 °F 49% 29.60 in - North 11.5 mph - N/A   Unknown
6:48 PM 41.0 °F 36.4 °F 24.1 °F 51% 29.61 in - North 6.9 mph - N/A   Unknown
7:48 PM 30.9 °F 25.2 °F 24.1 °F 76% 29.64 in - NNE 5.8 mph - N/A   Unknown
8:48 PM 28.9 °F - 23.0 °F 78% 29.65 in - Calm Calm - N/A   Unknown
9:48 PM 33.1 °F 25.5 °F 21.9 °F 64% 29.67 in - NE 9.2 mph - N/A   Unknown
10:48 PM 30.0 °F 20.5 °F 19.0 °F 64% 29.70 in - NE 11.5 mph - N/A   Unknown
11:48 PM 27.0 °F 18.0 °F 19.0 °F 72% 29.72 in - NNE 9.2 mph - N/A   Unknown